Flag for Norway Weather past 2 weeks in Mosjøen, Norway

Now
60 °F

Refreshingly cool.


Feels Like: 60 °F
Forecast: 37 / 52 °F
Wind: 5 mph from Northwest

Location: Mosjoen Kjaerstad

Current Time: Sep 3, 2015 at 6:09:34 PM

Latest Report: Sep 3, 2015 at 5:00 PM


Visibility: N/A

Pressure: 29.89 "Hg

Humidity: 49%

Dew point: 41 °F

Location of MosjøenLocation

Historic Weather in Mosjøen — Graph

°F

Mosjøen temperature yesterday

Maximum temperature yesterday: 61 °F (at 3:00 PM)
Minimum temperature yesterday: 35 °F (at 6:00 AM)
Average temperature yesterday: 46 °F

Past Weeks' High & Low Weather Summary

 TemperatureHumidityPressure
High80 °F (Aug 20, 2:00 PM)96% (Aug 27, 6:00 AM)30.32 "Hg (Aug 27, 6:00 AM)
Low35 °F (Sep 2, 6:00 AM)25% (Aug 20, 3:00 PM)29.23 "Hg (Aug 28, 7:00 AM)
Average58 °F74%29.96 "Hg
* Reported Aug 19 5:00 PM — Sep 3 5:00 PM, Mosjøen, Weather by CustomWeather, © 2015

Note: Actual official high and low records may vary slightly from our data, if they occured in-between our weather recording intervals... More about our weather records

Advertising

Mosjøen weather history for previous 24 hours

 ConditionsComfort  
Time TempWeatherWind HumidityBarometerVisibility
5:00 PM
Thu, Sep 3
60 °FRefreshingly cool.5 mph49%29.89 "HgN/A
4:00 PM61 °FRefreshingly cool.3 mph49%29.91 "HgN/A
3:00 PM65 °FMild.1 mph40%29.92 "HgN/A
2:00 PM63 °FMild.1 mph45%29.94 "HgN/A
1:00 PM61 °FRefreshingly cool.1 mph49%29.96 "HgN/A
12:00 PM58 °FCool.1 mph61%29.98 "HgN/A
11:00 AM53 °FCool.1 mph69%29.99 "HgN/A
10:00 AM47 °FCool.2 mph77%30.01 "HgN/A
9:00 AM43 °FQuite cool.2 mph86%30.02 "HgN/A
8:00 AM38 °FChilly.2 mph95%30.03 "HgN/A
7:00 AM36 °FChilly.2 mph95%30.04 "HgN/A
6:00 AM35 °FChilly.2 mph95%30.04 "HgN/A
5:00 AM36 °FChilly.2 mph95%30.05 "HgN/A
4:00 AM37 °FChilly.1 mph94%30.05 "HgN/A
3:00 AM38 °FChilly.2 mph93%30.05 "HgN/A
2:00 AM40 °FChilly.2 mph93%30.05 "HgN/A
1:00 AM40 °FQuite cool.2 mph93%30.05 "HgN/A
12:00 AM41 °FQuite cool.2 mph92%30.05 "HgN/A
10:00 PM
Wed, Sep 2
43 °FQuite cool.No wind87%30.04 "HgN/A
9:00 PM46 °FCool.No wind84%30.03 "HgN/A
8:00 PM51 °FCool.1 mph74%30.02 "HgN/A
7:00 PM56 °FCool.2 mph60%30.02 "HgN/A
6:00 PM60 °FRefreshingly cool.2 mph51%30.02 "HgN/A
Weather by CustomWeather, © 2015

See weather overviewHow to use our weather pages